TimeEDT,TemperatureF,Dew PointF,Humidity,Sea Level PressureIn,VisibilityMPH,Wind Direction,Wind SpeedMPH,Gust SpeedMPH,PrecipitationIn,Events,Conditions,WindDirDegrees,DateUTC
12:56 AM,24.1,18.0,77,29.75,-9999.0,NNW,20.7,32.2,N/A,,Unknown,340,2014-03-15 04:56:00
1:56 AM,23.0,16.0,74,29.79,-9999.0,North,19.6,-,N/A,,Unknown,360,2014-03-15 05:56:00
2:56 AM,19.9,10.9,68,29.84,-9999.0,NNW,18.4,24.2,N/A,,Unknown,340,2014-03-15 06:56:00
3:56 AM,19.0,10.0,68,29.88,-9999.0,North,15.0,24.2,N/A,,Unknown,350,2014-03-15 07:56:00
4:56 AM,17.1,10.0,74,29.91,-9999.0,NNW,12.7,-,N/A,,Unknown,340,2014-03-15 08:56:00
5:56 AM,16.0,9.0,74,29.96,-9999.0,NNW,13.8,23.0,N/A,,Unknown,340,2014-03-15 09:56:00
6:56 AM,16.0,9.0,74,29.99,-9999.0,North,13.8,-,N/A,,Unknown,350,2014-03-15 10:56:00
7:56 AM,15.1,7.0,70,30.03,-9999.0,North,16.1,-,N/A,,Unknown,350,2014-03-15 11:56:00
8:56 AM,14.0,6.1,71,30.07,-9999.0,North,16.1,-,N/A,,Unknown,350,2014-03-15 12:56:00
9:56 AM,12.9,5.0,71,30.11,-9999.0,North,19.6,-,N/A,,Unknown,360,2014-03-15 13:56:00
10:56 AM,12.9,3.0,65,30.15,-9999.0,North,13.8,24.2,N/A,,Unknown,350,2014-03-15 14:56:00
11:56 AM,12.9,3.0,65,30.19,-9999.0,NNW,17.3,26.5,N/A,,Unknown,330,2014-03-15 15:56:00
12:56 PM,12.9,1.9,62,30.22,-9999.0,North,21.9,27.6,N/A,,Unknown,350,2014-03-15 16:56:00
1:56 PM,12.9,1.0,59,30.25,-9999.0,NNW,18.4,-,N/A,,Unknown,340,2014-03-15 17:56:00
2:56 PM,12.9,1.9,62,30.27,-9999.0,North,13.8,23.0,N/A,,Unknown,350,2014-03-15 18:56:00
3:56 PM,12.0,1.0,61,30.30,-9999.0,NNW,19.6,-,N/A,,Unknown,340,2014-03-15 19:56:00
4:56 PM,10.9,-0.0,61,30.33,-9999.0,North,16.1,-,N/A,,Unknown,350,2014-03-15 20:56:00
5:56 PM,10.9,-0.0,61,30.36,-9999.0,North,20.7,27.6,N/A,,Unknown,360,2014-03-15 21:56:00
6:56 PM,10.9,-0.0,61,30.39,-9999.0,North,18.4,27.6,N/A,,Unknown,360,2014-03-15 22:56:00
7:56 PM,9.0,-0.9,64,30.42,-9999.0,North,13.8,-,N/A,,Unknown,360,2014-03-15 23:56:00
8:56 PM,8.1,-2.0,64,30.44,-9999.0,North,16.1,-,N/A,,Unknown,350,2014-03-16 00:56:00
9:56 PM,8.1,-2.9,61,30.46,-9999.0,North,13.8,-,N/A,,Unknown,350,2014-03-16 01:56:00
10:56 PM,8.1,-2.0,64,30.48,-9999.0,North,13.8,-,N/A,,Unknown,350,2014-03-16 02:56:00
11:56 PM,7.0,-2.9,64,30.49,-9999.0,North,16.1,-,N/A,,Unknown,350,2014-03-16 03:56:00